Location: LDNL
(36.4545°S, 141.6685°E)
Time: 17:58:38
(UTC+11:00)

Tiangong - Visible Passes

Search period start: 01 December 2022 00:00
Search period end: 11 December 2022 00:00
Orbit: 385 x 393 km, 41.5° (Epoch: 30 November)

Date Brightness Start Highest point End Pass type
(mag) Time Alt. Az. Time Alt. Az. Time Alt. Az.
02 Dec 0.5 05:21:56 10° N 05:23:36 13° NE 05:25:16 10° ENE visible
04 Dec -0.5 05:01:56 15° NNW 05:03:50 26° NNE 05:06:37 10° E visible
05 Dec 0.4 04:06:18 14° NE 04:06:18 14° NE 04:07:38 10° ENE visible
06 Dec -1.7 04:42:50 32° NNW 04:43:59 51° NNE 04:47:10 10° ESE visible
07 Dec 0.0 03:47:01 21° ENE 03:47:01 21° ENE 03:48:33 10° E visible
07 Dec -1.6 05:19:17 10° W 05:22:30 56° SSW 05:25:44 10° ESE visible
08 Dec -2.2 04:23:23 54° WNW 04:24:02 87° SSW 04:27:18 10° ESE visible
09 Dec 0.1 03:27:25 22° E 03:27:25 22° E 03:28:47 10° ESE visible
09 Dec -0.9 04:59:41 11° W 05:02:35 40° SSW 05:05:42 10° ESE visible
10 Dec -1.6 04:03:39 50° SW 04:03:59 53° SSW 04:07:11 10° ESE visible
